Location: ?????
(31.8092°N, 35.2590°E)
Time: 01:37:08
(UTC+00:00)

Cosmos 1339 Rocket - Pass Details

Date: 20 June 2021
Orbit: 942 x 1005 km, 82.9° (Epoch: 04 August)

Event Time Altitude Azimuth Distance (km) Brightness Sun altitude
Rises 17:18:27 0° 179° (S) 3,662 7.2 -6.5°
Reaches altitude 10° 17:20:58 10° 177° (S) 2,709 6.5 -6.9°
Maximum altitude 17:27:08 74° 93° (E) 1,001 4.5 -8.0°
Drops below altitude 10° 17:33:14 10° 10° (N) 2,682 7.2 -9.1°
Sets 17:35:43 0° 9° (N) 3,624 7.9 -9.5°
